2018 FQ1 |
ephemeris |
date |
magn |
radius |
delta |
ra |
dec |
elong |
phase |
Today | 16 Oct 2025 | 29.2 | 1.018 AU | 1.964 AU | 12h35m | -03°49' | 13.0° | 12.7° |
2018 FQ1 - 2025-10-16
astro.vanbuitenen.nl
The interactive orbit chart above shows the body's path through the solar system and its position at the given date.
Green and blue lines are shown perpendicular to the ecliptic plane: Green if the path is above the ecliptic plane, blue if it is below.
(Left-click and drag to rotate the view; Right-click and drag to move the view; Use scroll wheel to zoom in our out.)
The orbital elements of 2018 FQ1 are:
e (Eccentricity) : 0.2172396
a (Semimajor axis) : 1.1684330
i (Inclination) : 3.92654
Ω (Longitude of ascending node) : 178.12884
ω (Argument of perihelion) : 63.09289
M (Mean anomaly) : 188.48748
Epoch : 2025 May 05
L (Longitude of perihelion) : 241.16735
B (Latitude of perihelion) : 3.50090
P (Orbital period in years) : 1.26
The light curve chart below shows the estimated development of the minor planet's magnitude.
The all-sky chart below shows the path of the minor planet over the same period as the light curve. The current position is marked yellow.
The following chart shows the path of the minor planet in the next few days. The field of view is optimized for (~10x50) binoculars and finderscopes.
A more printer-friendly version of the same chart can be found below.
Ephemerides:
Date Time RA (2000) DEC (2000) delta radius elong phase PA magn
2025-10-16 00:00 UT 12 35 04.2 -03 49 44 1.964 1.018 13.0 12.7 293 29.2
2025-10-16 04:25 UT 12 35 46.2 -03 53 47 1.964 1.017 13.0 12.7 293 29.2
2025-10-17 00:00 UT 12 38 52.6 -04 11 43 1.961 1.014 12.9 12.7 293 29.2
2025-10-18 00:00 UT 12 42 42.1 -04 33 43 1.958 1.011 12.9 12.7 293 29.2
2025-10-19 00:00 UT 12 46 32.4 -04 55 42 1.955 1.008 12.9 12.7 293 29.2
2025-10-20 00:00 UT 12 50 23.8 -05 17 40 1.951 1.005 12.9 12.7 293 29.1
2025-10-21 00:00 UT 12 54 16.2 -05 39 37 1.948 1.002 12.8 12.7 293 29.1
2025-10-22 00:00 UT 12 58 09.6 -06 01 33 1.945 0.999 12.8 12.7 293 29.1
2025-10-23 00:00 UT 13 02 04.1 -06 23 26 1.942 0.996 12.7 12.7 293 29.1
2025-10-24 00:00 UT 13 05 59.6 -06 45 16 1.939 0.993 12.7 12.7 293 29.1
Terminology:
delta: distance between minor planet and earth in AU
radius: distance between minor planet and sun in AU
magn: magnitude (brightness) estimate
ra: right ascension in hours (24h = 360deg)
dec: declination in degrees
elong: elongation in degrees (angle sun-earth-minor planet)
phase: phase angle in degrees (angle sun-minor planet-earth)
AU: Astronomical Unit (mean distance between earth and sun: 149597870.7 km
Orbital elements provided by the MPC (Minor Planet Center).
Calculations by a modified version of AAPlus, a C# implementation of the AA+ project by PJ Naughter from the algorithms presented in the book "Astronomical Algorithms" by Jean Meeus.
NGC2000 dso catalog and star labels from VizieR as provided by the Strasbourg astronomical Data Center.
Tycho2 catalog from the ESO archive.